Weather History for St. George, AK

Change the Weather History Date:

Tuesday, January 28, 2014

  Actual Average Record
Temperature  
Mean Temperature 34 °F -  
Max Temperature 37 °F 27 °F 37 °F (2001)
Min Temperature 32 °F 20 °F 3 °F (2000)
Degree Days  
Heating Degree Days 31    
Moisture  
Dew Point 34 °F    
Average Humidity 100    
Maximum Humidity 100    
Minimum Humidity 96    
Precipitation  
Precipitation 0.06 in - - ()
Sea Level Pressure  
Sea Level Pressure 29.20 in    
Wind  
Wind Speed 9 mph (South)    
Max Wind Speed 26 mph    
Max Gust Speed 34 mph    
Visibility 4 miles    
Events Fog , Rain , Snow    
Averages and records for this station are not official NWS values.
T = Trace of Precipitation, MM = Missing Value Source: NWS Daily Summary

Daily Weather History Graph

Daily Weather History Graph

Search for Another Location

Airport:

Trip Planner

Search our weather history database for the weather conditions in past years. The results will help you decide how hot, cold, wet, or windy it might be!

Date:

Astronomy

Jan. 28, 2014 Rise Set
Actual Time 10:22 AM AKST 6:41 PM AKST
Civil Twilight 9:40 AM AKST 7:23 PM AKST
Nautical Twilight 8:54 AM AKST 8:10 PM AKST
Astronomical Twilight 8:09 AM AKST 8:54 PM AKST
Moon 8:24 AM AKST (1/28) 4:40 PM AKST (1/28)
Length of Visible Light 9h 43m
Length of Day
8h 18m
Waning Crescent, 6% of the Moon is Illuminated
Jan 28
Waning Crescent
Jan 30
New
Feb 6
First Quarter
Feb 14
Full
Feb 22
Last Quarter

Hourly Weather History & Observations

Time (AKST) Temp. Windchill Dew Point Humidity Pressure Visibility Wind Dir Wind Speed Gust Speed Precip Events Conditions
12:46 AM 34.0 °F 28.0 °F 34.0 °F 100% 29.16 in 7.0 mi NE 6.9 mph - N/A   Overcast
12:53 AM 34.0 °F 28.0 °F 34.0 °F 100% 29.12 in 5.0 mi NNE 6.9 mph - N/A   Overcast
1:39 AM 34.0 °F 27.2 °F 34.0 °F 100% 29.15 in 8.0 mi ENE 8.1 mph - N/A   Overcast
1:53 AM 34.0 °F 29.8 °F 34.0 °F 100% 29.13 in 8.0 mi ESE 4.6 mph - N/A   Overcast
2:45 AM 34.0 °F 26.0 °F 34.0 °F 100% 29.17 in 5.0 mi SW 10.4 mph - N/A   Overcast
2:53 AM 34.0 °F 26.6 °F 34.0 °F 100% 29.14 in 3.0 mi SW 9.2 mph - 0.00 in Snow Light Snow
3:05 AM 34.0 °F 27.2 °F 34.0 °F 100% 29.17 in 1.8 mi WSW 8.1 mph - 0.00 in   Overcast
3:11 AM 34.0 °F 27.2 °F 34.0 °F 100% 29.18 in 0.8 mi West 8.1 mph - 0.00 in   Mist
3:53 AM 34.0 °F 31.0 °F 34.0 °F 100% 29.14 in 0.8 mi WNW 3.5 mph - 0.00 in   Mist
4:53 AM 34.0 °F - 34.0 °F 100% 29.15 in 0.8 mi Calm Calm - N/A   Overcast
5:53 AM 32.0 °F 28.7 °F 32.0 °F 100% 29.14 in 0.2 mi East 3.5 mph - N/A Fog Fog
6:06 AM 32.0 °F 28.7 °F 32.0 °F 100% 29.17 in 1.2 mi East 3.5 mph - N/A   Overcast
6:10 AM 32.0 °F 28.7 °F 32.0 °F 100% 29.17 in 3.0 mi East 3.5 mph - N/A   Overcast
6:35 AM 34.0 °F 28.8 °F 34.0 °F 100% 29.18 in 1.8 mi SSW 5.8 mph - N/A   Overcast
6:37 AM 34.0 °F 29.8 °F 34.0 °F 100% 29.18 in 1.0 mi SSW 4.6 mph - N/A   Overcast
6:45 AM 33.1 °F - 33.1 °F 100% 29.18 in 0.5 mi Calm Calm - N/A Fog Fog
6:53 AM 33.1 °F 28.7 °F 33.1 °F 100% 29.15 in 0.5 mi South 4.6 mph - N/A Fog Fog
7:53 AM 34.0 °F 27.2 °F 34.0 °F 100% 29.16 in 0.5 mi South 8.1 mph - 0.00 in Fog Fog
8:11 AM 34.0 °F 26.0 °F 34.0 °F 100% 29.20 in 1.0 mi SSW 10.4 mph - 0.00 in   Mist
8:18 AM 34.0 °F 26.0 °F 34.0 °F 100% 29.20 in 0.5 mi SSW 10.4 mph - 0.00 in Fog Fog
8:25 AM 34.0 °F 27.2 °F 34.0 °F 100% 29.20 in 0.5 mi SSW 8.1 mph - 0.00 in Fog Fog
8:32 AM 34.0 °F 28.8 °F 34.0 °F 100% 29.20 in 0.8 mi South 5.8 mph - 0.00 in Rain Light Rain
8:35 AM 34.0 °F 28.8 °F 34.0 °F 100% 29.20 in 1.2 mi South 5.8 mph - 0.00 in Rain Light Rain
8:41 AM 34.0 °F 29.8 °F 34.0 °F 100% 29.20 in 3.0 mi South 4.6 mph - 0.00 in   Overcast
8:49 AM 33.8 °F 29.6 °F 33.8 °F 100% 29.20 in 2.5 mi SSE 4.6 mph - 0.00 in   Overcast
8:53 AM 33.1 °F 28.7 °F 33.1 °F 100% 29.16 in 3.0 mi SSE 4.6 mph - 0.00 in   Overcast
9:22 AM 34.0 °F 27.2 °F 34.0 °F 100% 29.20 in 5.0 mi South 8.1 mph - 0.00 in   Overcast
9:25 AM 34.0 °F 27.2 °F 34.0 °F 100% 29.20 in 1.8 mi South 8.1 mph - 0.00 in   Overcast
9:28 AM 34.0 °F 28.0 °F 34.0 °F 100% 29.20 in 1.0 mi South 6.9 mph - 0.00 in   Overcast
9:35 AM 34.0 °F 28.8 °F 34.0 °F 100% 29.20 in 0.8 mi South 5.8 mph - 0.00 in   Overcast
9:53 AM 34.0 °F 28.0 °F 34.0 °F 100% 29.18 in 0.8 mi South 6.9 mph - 0.00 in   Mist
10:42 AM 34.0 °F 26.0 °F 34.0 °F 100% 29.22 in 0.2 mi SSW 10.4 mph - 0.00 in Fog , Rain Light Rain
10:53 AM 34.0 °F 26.6 °F 34.0 °F 100% 29.19 in 0.2 mi SSW 9.2 mph - 0.00 in Fog Fog
11:02 AM 34.0 °F 27.2 °F 34.0 °F 100% 29.23 in 0.2 mi SSW 8.1 mph - 0.00 in Fog Fog
11:19 AM 34.0 °F 26.6 °F 34.0 °F 100% 29.23 in 0.2 mi SSW 9.2 mph - 0.00 in Fog Fog
11:31 AM 34.0 °F 26.0 °F 34.0 °F 100% 29.23 in 0.2 mi SSW 10.4 mph - 0.00 in Fog Fog
11:53 AM 34.0 °F 27.2 °F 34.0 °F 100% 29.20 in 0.2 mi South 8.1 mph - 0.00 in Fog Fog
12:03 PM 34.0 °F 26.6 °F 34.0 °F 100% 29.24 in 2.5 mi SSW 9.2 mph - 0.00 in   Overcast
12:10 PM 34.0 °F 26.6 °F 34.0 °F 100% 29.25 in 5.0 mi South 9.2 mph - 0.00 in   Overcast
12:18 PM 34.0 °F 27.2 °F 34.0 °F 100% 29.25 in 8.0 mi South 8.1 mph - 0.00 in   Overcast
12:32 PM 34.0 °F 26.0 °F 34.0 °F 100% 29.25 in 6.0 mi South 10.4 mph - 0.00 in   Overcast
12:39 PM 34.0 °F 27.2 °F 34.0 °F 100% 29.25 in 1.5 mi South 8.1 mph - 0.00 in   Overcast
12:41 PM 34.0 °F 26.6 °F 34.0 °F 100% 29.24 in 0.8 mi South 9.2 mph - 0.01 in   Overcast
12:53 PM 34.0 °F 28.8 °F 34.0 °F 100% 29.21 in 0.2 mi South 5.8 mph - 0.01 in Fog Fog
1:07 PM 34.0 °F 28.8 °F 34.0 °F 100% 29.23 in 1.2 mi SSE 5.8 mph - 0.00 in   Overcast
1:14 PM 34.0 °F 28.0 °F 34.0 °F 100% 29.23 in 0.8 mi SSE 6.9 mph - 0.00 in   Mist
1:24 PM 34.0 °F 27.2 °F 34.0 °F 100% 29.24 in 1.2 mi South 8.1 mph - 0.00 in   Overcast
1:27 PM 34.0 °F 28.0 °F 34.0 °F 100% 29.24 in 4.0 mi South 6.9 mph - 0.00 in   Overcast
1:53 PM 34.0 °F 26.0 °F 34.0 °F 100% 29.21 in 10.0 mi SSE 10.4 mph - 0.00 in   Overcast
2:12 PM 34.0 °F 25.0 °F 34.0 °F 100% 29.24 in 10.0 mi South 12.7 mph - N/A   Overcast
2:53 PM 33.1 °F 23.4 °F 33.1 °F 100% 29.20 in 10.0 mi SSE 13.8 mph - N/A   Overcast
3:53 PM 32.0 °F 20.5 °F 32.0 °F 100% 29.19 in 10.0 mi South 18.4 mph 23.0 mph N/A   Overcast
4:41 PM 33.1 °F 21.5 °F 33.1 °F 100% 29.22 in 10.0 mi SSE 19.6 mph 25.3 mph N/A   Scattered Clouds
4:53 PM 33.1 °F 20.1 °F 33.1 °F 100% 29.17 in 10.0 mi SSE 25.3 mph - N/A   Partly Cloudy
5:53 PM 34.0 °F 21.8 °F 33.1 °F 96% 29.18 in 10.0 mi SE 23.0 mph - 0.00 in   Scattered Clouds
6:04 PM 34.0 °F 22.1 °F 33.1 °F 96% 29.22 in 10.0 mi SE 21.9 mph 27.6 mph N/A   Mostly Cloudy
6:53 PM 34.0 °F 21.8 °F 34.0 °F 100% 29.18 in 9.0 mi SE 23.0 mph - N/A   Overcast
7:53 PM 34.0 °F 21.5 °F 34.0 °F 100% 29.18 in 9.0 mi SE 24.2 mph 33.4 mph 0.00 in   Overcast
8:06 PM 35.1 °F 22.7 °F 35.1 °F 100% 29.22 in 8.0 mi SE 25.3 mph - N/A   Unknown
8:53 PM 35.1 °F - 35.1 °F 100% 29.18 in 6.0 mi North - - N/A   Mist
9:16 PM 35.1 °F - 35.1 °F 100% 29.22 in 4.0 mi North - - 0.01 in Snow Light Snow
9:53 PM 36.0 °F 23.7 °F 36.0 °F 100% 29.18 in 6.0 mi SE 26.5 mph 34.5 mph 0.01 in   Overcast
10:53 PM 36.0 °F 23.9 °F 36.0 °F 100% 29.19 in 6.0 mi SE 25.3 mph 34.5 mph 0.02 in Snow Light Snow
11:13 PM 36.0 °F 23.9 °F 36.0 °F 100% 29.22 in 6.0 mi SSE 25.3 mph 33.4 mph 0.01 in   Mist
11:43 PM 36.0 °F 23.9 °F 36.0 °F 100% 29.23 in 7.0 mi SSE 25.3 mph - 0.01 in   Overcast
11:53 PM 37.0 °F 25.6 °F 37.0 °F 100% 29.20 in 9.0 mi SSE 24.2 mph - 0.02 in   Overcast